| time (UTC) | temp F | wind direction | speed MPH | gust MPH | rain 1hr in | rain 24hr in | rain mn in | humidity % | barometer mb |
| 20260508181552 | 47 | 43 | 8.0 | 12.0 | 0.00 | 1.09 | 0.00 | 85 | 1001.2 |
| 20260508180043 | 48 | 39 | 7.0 | 12.0 | 0.00 | 1.11 | 0.00 | 85 | 1001.2 |
| 20260508174542 | 47 | 25 | 10.0 | 13.0 | 0.00 | 1.11 | 0.00 | 86 | 1001.2 |
| 20260508173040 | 48 | 15 | 9.0 | 13.0 | 0.00 | 1.11 | 0.00 | 86 | 1001.1 |
| 20260508171547 | 47 | 20 | 11.0 | 13.0 | 0.00 | 1.11 | 0.00 | 86 | 1001.3 |
| 20260508170038 | 47 | 19 | 9.0 | 12.0 | 0.00 | 1.12 | 0.00 | 86 | 1001.4 |
| 20260508164537 | 46 | 39 | 8.0 | 11.0 | 0.00 | 1.12 | 0.00 | 88 | 1001.4 |
| 20260508163039 | 46 | 10 | 7.0 | 11.0 | 0.00 | 1.12 | 0.00 | 88 | 1001.3 |
| 20260508161538 | 46 | 36 | 8.0 | 10.0 | 0.00 | 1.12 | 0.00 | 88 | 1001.4 |
| 20260508160038 | 46 | 56 | 6.0 | 10.0 | 0.00 | 1.12 | 0.00 | 89 | 1001.4 |
| 20260508154534 | 46 | 47 | 6.0 | 9.0 | 0.00 | 1.12 | 0.00 | 88 | 1001.6 |
| 20260508153033 | 46 | 27 | 7.0 | 10.0 | 0.00 | 1.12 | 0.00 | 89 | 1001.4 |
| 20260508151535 | 46 | 23 | 7.0 | 11.0 | 0.00 | 1.12 | 0.00 | 90 | 1001.5 |
| 20260508150039 | 46 | 19 | 8.0 | 11.0 | 0.00 | 1.12 | 0.00 | 89 | 1001.6 |
| 20260508144605 | 46 | 23 | 9.0 | 11.0 | 0.00 | 1.12 | 0.00 | 90 | 1001.7 |
| 20260508143037 | 46 | 22 | 9.0 | 11.0 | 0.00 | 1.12 | 0.00 | 90 | 1001.8 |
| 20260508141530 | 46 | 16 | 8.0 | 11.0 | 0.00 | 1.12 | 0.00 | 90 | 1002.1 |
| 20260508140037 | 46 | 43 | 8.0 | 11.0 | 0.00 | 1.12 | 0.00 | 91 | 1002.2 |
| 20260508134530 | 47 | 39 | 8.0 | 10.0 | 0.00 | 1.12 | 0.00 | 92 | 1002.5 |
| 20260508133026 | 47 | 52 | 5.0 | 9.0 | 0.00 | 1.12 | 0.00 | 94 | 1002.7 |
| 20260508131527 | 47 | 14 | 6.0 | 9.0 | 0.00 | 1.12 | 0.00 | 96 | 1002.2 |
| 20260508130027 | 46 | 25 | 4.0 | 6.0 | 0.00 | 1.12 | 0.00 | 98 | 1002.0 |
| 20260508124525 | 45 | 13 | 2.0 | 4.0 | 0.00 | 1.12 | 0.00 | 98 | 1002.3 |
| 20260508123026 | 45 | 34 | 3.0 | 4.0 | 0.00 | 1.12 | 0.00 | 98 | 1001.9 |
| 20260508121525 | 44 | 357 | 3.0 | 4.0 | 0.00 | 1.12 | 0.00 | 98 | 1002.3 |
| 20260508120024 | 42 | 10 | 1.0 | 4.0 | 0.00 | 1.21 | 0.00 | 98 | 1002.5 |
| 20260508114531 | 43 | 39 | 1.0 | 3.0 | 0.00 | 1.21 | 0.00 | 98 | 1002.7 |
| 20260508113032 | 42 | 43 | 2.0 | 5.0 | 0.00 | 1.21 | 0.00 | 98 | 1002.5 |
| 20260508111524 | 42 | 38 | 0.0 | 3.0 | 0.00 | 1.21 | 0.00 | 98 | 1002.5 |
| 20260508110020 | 41 | 37 | 2.0 | 5.0 | 0.00 | 1.26 | 0.00 | 98 | 1002.5 |
| 20260508104519 | 41 | 9 | 3.0 | 4.0 | 0.00 | 1.26 | 0.00 | 98 | 1002.9 |
| 20260508103017 | 41 | 122 | 0.0 | 1.0 | 0.00 | 1.26 | 0.00 | 98 | 1002.8 |
| 20260508101517 | 41 | 122 | 0.0 | 3.0 | 0.00 | 1.26 | 0.00 | 98 | 1002.5 |
| 20260508100014 | 41 | 95 | 1.0 | 3.0 | 0.00 | 1.27 | 0.00 | 98 | 1002.2 |
| 20260508094513 | 40 | 95 | 0.0 | 3.0 | 0.00 | 1.27 | 0.00 | 98 | 1002.2 |
| 20260508093015 | 40 | 77 | 2.0 | 4.0 | 0.00 | 1.27 | 0.00 | 98 | 1002.0 |
| 20260508091511 | 40 | 54 | 3.0 | 6.0 | 0.00 | 1.27 | 0.00 | 98 | 1002.0 |
| 20260508090010 | 39 | 49 | 2.0 | 6.0 | 0.00 | 1.27 | 0.00 | 98 | 1002.0 |
| 20260508084509 | 39 | 22 | 4.0 | 8.0 | 0.00 | 1.27 | 0.00 | 98 | 1002.2 |
| 20260508083009 | 39 | 73 | 5.0 | 9.0 | 0.00 | 1.27 | 0.00 | 98 | 1001.7 |
| 20260508081505 | 40 | 28 | 4.0 | 7.0 | 0.00 | 1.27 | 0.00 | 98 | 1001.5 |
| 20260508080002 | 40 | 39 | 4.0 | 6.0 | 0.00 | 1.30 | 0.00 | 98 | 1001.3 |
| 20260508074604 | 41 | 54 | 2.0 | 6.0 | 0.00 | 1.30 | 0.00 | 98 | 1001.6 |
| 20260508073105 | 41 | 52 | 4.0 | 6.0 | 0.00 | 1.30 | 0.00 | 98 | 1001.6 |
| 20260508071554 | 42 | 54 | 4.0 | 8.0 | 0.00 | 1.30 | 0.00 | 98 | 1001.8 |
| 20260508070051 | 42 | 48 | 3.0 | 8.0 | 0.00 | 1.31 | 0.00 | 98 | 1001.8 |
| 20260508064602 | 43 | 63 | 4.0 | 7.0 | 0.00 | 1.31 | 0.00 | 98 | 1001.5 |
| 20260508063045 | 43 | 24 | 4.0 | 6.0 | 0.00 | 1.31 | 0.00 | 98 | 1001.7 |
| 20260508061553 | 44 | 24 | 5.0 | 8.0 | 0.00 | 1.31 | 0.00 | 98 | 1001.7 |
| 20260508060047 | 44 | 21 | 3.0 | 5.0 | 0.00 | 1.31 | 0.00 | 98 | 1001.7 |
| 20260508054604 | 45 | 39 | 2.0 | 6.0 | 0.00 | 1.31 | 0.00 | 98 | 1001.8 |
| 20260508053038 | 44 | 80 | 3.0 | 6.0 | 0.00 | 1.31 | 0.00 | 98 | 1001.8 |
| 20260508051539 | 45 | 50 | 5.0 | 10.0 | 0.00 | 1.31 | 0.00 | 97 | 1001.5 |
| 20260508050040 | 45 | 32 | 5.0 | 11.0 | 0.00 | 1.31 | 0.00 | 97 | 1001.6 |
| 20260508044532 | 46 | 34 | 7.0 | 12.0 | 0.00 | 1.31 | 0.00 | 96 | 1001.5 |
| 20260508043040 | 47 | 83 | 0.0 | 0.0 | 0.00 | 1.31 | 0.00 | 98 | 1001.5 |
| 20260508041533 | 47 | 83 | 0.0 | 0.0 | 0.00 | 1.31 | 0.00 | 98 | 1001.4 |
| 20260508040026 | 48 | 83 | 0.0 | 3.0 | 0.00 | 1.31 | 0.00 | 98 | 1001.4 |
| 20260508034528 | 48 | 64 | 1.0 | 3.0 | 0.00 | 1.31 | 0.00 | 98 | 1001.7 |
| 20260508033023 | 48 | 352 | 0.0 | 2.0 | 0.00 | 1.31 | 0.00 | 98 | 1001.7 |
| 20260508031521 | 48 | 352 | 1.0 | 6.0 | 0.00 | 1.31 | 0.00 | 98 | 1001.8 |
| 20260508030017 | 49 | 124 | 2.0 | 4.0 | 0.00 | 1.31 | 1.31 | 98 | 1001.9 |
| 20260508024520 | 49 | 166 | 0.0 | 2.0 | 0.00 | 1.31 | 1.31 | 98 | 1001.9 |
| 20260508023015 | 49 | 167 | 0.0 | 3.0 | 0.00 | 1.31 | 1.31 | 99 | 1001.7 |
| 20260508021516 | 49 | 197 | 2.0 | 11.0 | 0.00 | 1.31 | 1.31 | 99 | 1001.9 |
| 20260508020014 | 48 | 191 | 9.0 | 14.0 | 0.00 | 1.31 | 1.31 | 98 | 1001.8 |
| 20260508014512 | 48 | 206 | 5.0 | 10.0 | 0.00 | 1.31 | 1.31 | 98 | 1001.7 |
| 20260508013010 | 49 | 212 | 4.0 | 9.0 | 0.00 | 1.31 | 1.31 | 98 | 1001.5 |
| 20260508011509 | 49 | 214 | 4.0 | 7.0 | 0.00 | 1.31 | 1.31 | 98 | 1001.3 |
| 20260508010020 | 50 | 202 | 6.0 | 11.0 | 0.00 | 1.31 | 1.31 | 98 | 1001.6 |
| 20260508004505 | 49 | 197 | 7.0 | 11.0 | 0.00 | 1.31 | 1.31 | 98 | 1001.6 |
| 20260508003005 | 50 | 189 | 7.0 | 13.0 | 0.00 | 1.31 | 1.31 | 98 | 1001.8 |
| 20260508001505 | 50 | 201 | 10.0 | 15.0 | 0.00 | 1.31 | 1.31 | 98 | 1001.8 |
| 20260508000005 | 49 | 208 | 9.0 | 15.0 | 0.00 | 1.31 | 1.31 | 98 | 1001.8 |
| 20260507234505 | 49 | 357 | 9.0 | 17.0 | 0.00 | 1.31 | 1.31 | 98 | 1001.8 |
| 20260507233001 | 50 | 212 | 7.0 | 14.0 | 0.00 | 1.31 | 1.31 | 98 | 1002.0 |
| 20260507231501 | 50 | 199 | 8.0 | 15.0 | 0.00 | 1.31 | 1.31 | 98 | 1001.9 |
| 20260507230104 | 50 | 197 | 12.0 | 18.0 | 0.00 | 1.31 | 1.31 | 98 | 1002.0 |
| 20260507224558 | 50 | 209 | 11.0 | 16.0 | 0.00 | 1.31 | 1.31 | 98 | 1001.8 |
| 20260507223103 | 50 | 185 | 8.0 | 12.0 | 0.00 | 1.31 | 1.31 | 97 | 1002.4 |
| 20260507221601 | 50 | 199 | 9.0 | 12.0 | 0.00 | 1.31 | 1.31 | 97 | 1002.5 |
| 20260507220054 | 50 | 195 | 8.0 | 14.0 | 0.00 | 1.31 | 1.31 | 97 | 1002.6 |
| 20260507214551 | 50 | 357 | 8.0 | 15.0 | 0.02 | 1.31 | 1.31 | 97 | 1002.5 |
| 20260507213050 | 50 | 238 | 1.0 | 5.0 | 0.03 | 1.31 | 1.31 | 97 | 1002.4 |
| 20260507211557 | 50 | 229 | 4.0 | 8.0 | 0.07 | 1.31 | 1.31 | 97 | 1002.1 |
| 20260507210049 | 50 | 191 | 5.0 | 14.0 | 0.13 | 1.31 | 1.31 | 98 | 1001.5 |
| 20260507204542 | 50 | 231 | 2.0 | 11.0 | 0.23 | 1.29 | 1.29 | 97 | 1001.9 |
| 20260507203039 | 49 | 202 | 6.0 | 10.0 | 0.34 | 1.28 | 1.28 | 98 | 1002.5 |
| 20260507201537 | 49 | 221 | 3.0 | 8.0 | 0.46 | 1.24 | 1.24 | 97 | 1002.9 |
| 20260507200036 | 49 | 206 | 7.0 | 10.0 | 0.52 | 1.17 | 1.17 | 97 | 1003.5 |
| 20260507194531 | 49 | 190 | 3.0 | 6.0 | 0.54 | 1.06 | 1.06 | 96 | 1004.2 |
| 20260507193030 | 51 | 208 | 8.0 | 20.0 | 0.50 | 0.93 | 0.93 | 95 | 1004.5 |
| 20260507191528 | 51 | 211 | 15.0 | 26.0 | 0.50 | 0.77 | 0.77 | 97 | 1004.4 |
| 20260507190024 | 51 | 181 | 12.0 | 21.0 | 0.43 | 0.65 | 0.65 | 97 | 1004.4 |
| 20260507184520 | 52 | 202 | 11.0 | 18.0 | 0.31 | 0.51 | 0.51 | 97 | 1004.7 |
| 20260507183022 | 52 | 197 | 12.0 | 20.0 | 0.22 | 0.43 | 0.43 | 96 | 1005.0 |